Wind_Speed
18 19 19 20 20 20 20 18 16 15 15 15 16 16 15 16 15 16 17 17 17 17 17 17 17 17 17 18 18 19 20 21 20 19 18 20 20 21 22 21 21 22
19 19 20 22 21 19 18 17 14 13 15 16 16 16 16 15 15 16 16 17 17 17 17 17 17 17 17 18 18 19 19 19 19 18 18 19 20 21 21 21 21 21
19 20 21 22 20 18 17 16 14 14 16 17 16 16 17 16 16 16 16 17 17 18 17 17 18 17 17 18 18 18 19 18 18 17 18 19 19 20 20 20 21 21
18 20 21 20 19 19 18 16 16 16 18 18 17 17 17 16 16 16 15 15 16 17 18 18 18 18 18 18 18 18 18 18 18 16 17 18 18 18 19 19 20 20
18 20 20 19 19 19 18 17 18 19 19 18 17 17 16 15 14 14 14 14 15 16 17 18 18 18 18 18 17 17 16 17 16 15 16 17 17 17 17 17 18 19
18 19 19 19 19 19 18 19 19 19 18 18 17 16 14 13 13 12 12 13 14 15 16 16 17 17 17 17 17 16 15 15 15 14 15 16 16 16 16 16 17 17
19 20 20 19 19 19 20 20 19 19 18 18 17 15 13 12 11 10 10 10 12 13 14 15 16 16 16 16 16 16 15 14 13 13 14 14 14 15 15 16 15 15
20 20 20 20 20 20 21 20 19 19 18 17 17 14 12 10 10 9 8 9 10 12 14 14 15 15 16 15 16 15 14 13 12 12 12 12 12 13 13 14 14 13
19 20 21 21 21 21 21 20 20 19 17 17 17 15 12 10 8 8 8 9 10 12 14 14 15 15 15 15 15 15 14 13 11 10 10 11 11 11 11 11 11 11
20 23 23 22 22 22 22 21 20 19 18 18 17 14 12 10 7 7 8 10 11 13 15 15 15 14 14 14 14 13 13 12 11 9 9 10 10 10 10 9 9 10
24 25 24 23 24 23 23 22 21 19 19 18 16 14 11 9 8 8 10 11 12 13 15 16 15 14 14 13 12 11 12 12 11 9 9 9 8 9 10 8 7 8
25 24 24 24 24 24 23 23 21 20 19 17 15 13 12 10 10 10 11 12 13 14 15 15 14 13 13 12 11 12 12 11 10 8 8 8 8 8 8 7 7 8
24 24 24 24 23 24 24 23 22 20 19 17 14 13 11 10 10 11 12 13 13 14 15 15 14 13 13 12 11 11 11 10 9 8 8 7 6 7 6 8 8 6
24 24 24 24 24 24 24 23 22 21 19 17 14 12 11 10 10 11 13 14 14 15 15 14 14 13 12 11 10 9 9 8 7 7 7 7 5 5 4 6 7 5
25 25 25 25 25 25 25 24 22 21 19 17 15 13 11 10 10 12 13 14 15 15 15 14 14 13 11 10 9 8 8 7 6 6 6 5 4 3 2 3 4 4
26 26 25 25 25 26 25 24 23 21 20 18 16 13 12 11 12 13 14 14 14 14 14 14 13 12 11 9 8 8 7 5 5 6 6 4 2 2 1 2 3 3
27 26 26 25 26 26 26 25 24 23 22 20 17 15 14 14 14 15 14 13 13 13 13 13 12 11 10 8 7 6 4 4 5 6 5 6 3 1 2 3 3 3
28 27 27 27 27 27 26 26 25 26 24 22 19 17 16 17 16 15 15 13 13 13 12 12 11 9 8 7 6 5 4 4 5 5 4 6 5 1 3 4 2 5
29 28 28 28 28 27 26 26 26 27 25 22 20 18 17 18 17 16 15 14 13 12 12 11 10 8 7 6 5 4 3 2 3 4 4 4 5 3 4 5 1 7
30 29 29 28 28 28 27 26 26 26 24 22 20 18 16 17 17 16 16 15 13 12 12 10 9 7 6 5 4 3 2 2 2 1 4 4 4 4 4 3 2 8
31 30 30 29 29 29 28 27 26 25 24 22 20 18 15 14 13 13 13 14 14 13 13 12 10 7 5 4 3 2 1 0 1 2 3 5 6 5 4 1 4 9
31 31 31 30 30 29 29 28 26 24 23 22 20 18 15 13 12 10 10 12 13 13 13 13 11 8 5 3 2 1 1 3 4 3 4 5 7 7 5 3 4 8
32 32 31 31 30 29 29 28 27 25 23 22 21 19 17 15 12 11 10 10 12 12 13 13 12 9 7 5 5 5 5 6 6 4 5 6 7 6 5 4 4 7
33 33 32 32 31 30 30 28 27 26 24 22 21 19 18 16 13 12 12 11 10 10 10 11 11 9 8 7 7 8 8 8 7 6 6 6 6 5 4 4 6 9
34 33 33 33 32 30 30 28 27 26 24 23 21 20 18 16 15 14 14 12 10 8 7 8 10 9 8 7 8 9 9 8 7 8 9 8 7 6 5 6 9 11
35 35 34 33 32 30 29 28 27 25 23 22 21 20 19 18 16 15 14 12 10 8 6 6 7 8 8 8 8 8 9 8 8 9 10 9 8 7 8 10 12 13
Wind_Direction
151 150 145 141 139 137 136 133 127 121 118 118 113 109 111 113 112 110 106 104 103 100 97 94 95 95 91 89 87 84 82 79 78 78 76 78 82 80 76 71 65 61
148 147 145 143 139 136 135 133 127 124 123 120 116 112 111 113 113 112 108 106 103 100 98 96 94 93 90 87 86 85 83 81 81 79 76 79 82 78 73 69 61 55
145 144 144 143 141 137 133 130 125 125 127 123 118 116 115 114 114 114 112 109 105 102 100 98 95 93 89 86 84 83 81 79 80 80 78 78 77 74 69 63 57 56
144 144 142 141 141 138 134 129 124 125 126 124 122 123 122 118 117 116 114 112 108 104 101 98 96 94 90 87 85 83 80 78 78 81 82 79 73 70 66 58 55 58
145 144 142 140 140 138 135 131 127 127 127 127 128 128 125 121 117 115 115 115 112 109 105 100 97 95 93 90 87 85 81 78 81 83 82 79 72 66 61 52 52 56
148 147 144 142 140 139 136 133 133 134 133 132 132 129 126 123 118 116 116 116 115 114 110 104 100 98 97 94 91 88 84 83 88 88 82 79 72 64 57 47 49 56
150 149 146 143 142 141 138 136 137 137 135 134 131 128 128 125 119 117 117 118 119 119 118 112 105 102 101 98 95 92 86 86 91 90 84 80 71 62 54 47 52 60
153 150 147 146 145 143 140 139 139 137 137 136 130 127 127 123 118 118 118 122 125 125 126 122 112 107 107 102 97 94 91 90 93 91 87 80 69 59 51 50 58 61
157 154 151 150 147 145 144 142 141 140 142 139 131 127 122 116 114 115 114 118 124 129 133 130 120 113 111 107 102 100 98 98 97 92 87 82 71 59 54 58 62 57
160 157 154 151 148 147 146 144 143 143 143 139 133 127 120 114 108 105 109 111 116 127 134 133 126 119 116 112 107 106 107 106 102 97 93 88 76 67 65 67 63 49
157 156 154 151 149 148 146 145 145 145 144 140 136 129 122 117 106 102 110 110 110 122 132 134 129 122 121 119 112 110 113 109 103 106 108 96 80 75 74 69 56 37
157 156 155 154 153 150 148 146 147 148 146 143 140 133 123 114 104 102 110 111 109 117 128 133 131 125 124 123 116 113 113 106 101 115 124 107 86 84 77 57 43 30
159 158 158 158 157 154 152 150 149 149 147 143 140 134 121 108 103 106 111 113 113 115 121 128 130 128 127 126 121 117 112 104 100 114 133 125 95 89 76 45 34 30
160 159 159 158 158 155 153 151 149 148 146 142 138 130 117 104 103 110 115 116 116 116 118 124 127 128 127 127 126 123 118 113 104 104 130 142 115 90 71 37 32 40
161 161 159 159 159 157 154 152 150 147 146 143 138 128 115 105 107 114 117 118 118 118 119 123 125 124 123 124 126 126 123 118 106 96 110 139 140 110 74 43 51 55
163 162 161 161 161 159 156 154 152 151 149 143 135 125 115 112 114 115 116 118 119 120 121 120 119 116 116 119 122 129 127 113 112 107 92 96 147 162 119 113 118 60
164 164 164 162 160 158 156 154 154 153 149 141 131 122 116 114 111 111 113 116 119 121 120 118 116 111 111 115 120 129 124 99 116 124 90 68 79 202 190 157 154 48
167 166 165 163 160 157 155 156 158 155 148 141 131 121 115 111 106 106 109 112 117 119 118 119 119 113 113 120 124 127 120 99 110 117 88 56 43 35 187 173 137 38
169 168 166 164 163 160 157 156 158 156 151 146 138 126 115 108 104 103 104 107 112 115 116 120 123 121 122 127 135 142 145 136 113 88 74 47 34 61 160 168 91 20
171 170 168 167 166 164 161 158 158 157 155 152 148 142 129 116 107 102 99 99 103 106 109 112 117 124 134 142 156 179 214 221 205 93 71 63 56 89 145 165 356 356
171 169 168 167 166 165 164 162 160 159 159 158 157 155 149 138 125 109 99 96 96 99 100 99 99 111 136 163 179 210 254 258 184 162 109 83 81 98 124 148 329 337
171 169 168 167 166 165 165 165 163 161 161 161 161 159 157 154 145 130 114 101 95 94 93 90 86 87 100 130 144 127 70 71 86 130 137 107 90 90 90 60 347 335
173 171 169 168 168 167 166 167 165 163 162 162 162 163 163 162 156 147 137 119 103 94 88 84 81 76 74 79 81 73 65 63 69 96 124 117 97 88 75 52 11 347
175 173 171 169 169 169 167 168 168 167 166 165 164 164 165 166 164 157 149 136 119 105 92 83 79 75 67 61 59 53 48 54 65 79 95 102 97 89 71 40 7 356
175 174 173 171 170 170 169 168 168 168 169 170 171 171 171 172 169 162 155 149 139 126 109 91 78 72 64 54 49 41 39 51 69 78 80 80 78 72 54 28 10 3
176 175 174 173 172 171 169 167 166 166 167 169 171 173 174 174 171 166 162 161 159 152 138 110 83 72 62 49 42 35 34 53 77 80 75 67 58 45 27 16 10 6
Height
835 836 836 837 839 840 841 842 843 844 846 847 848 849 851 851 852 851 851 851 851 851 851 851 851 851 851 851 851 851 851 851 851 853 853 853 854 854 854 854 854 855
835 836 837 838 839 841 841 842 843 845 847 848 849 850 851 852 852 852 852 852 852 852 852 852 852 852 852 852 852 852 852 852 853 854 855 855 855 855 855 856 856 857
835 836 837 838 839 841 842 843 844 846 847 849 850 851 852 852 852 853 853 852 852 852 852 853 853 853 853 853 853 853 854 854 855 856 856 856 856 857 857 857 858 858
835 836 837 838 839 841 842 844 845 847 849 850 851 852 852 853 853 853 853 853 853 853 853 853 854 854 854 854 855 855 856 856 857 857 857 857 858 858 859 859 859 859
836 837 837 839 840 841 843 844 846 848 850 851 852 853 853 853 853 853 853 854 854 854 854 854 854 854 855 856 856 857 857 857 858 858 858 858 859 860 860 860 860 860
836 837 838 839 841 842 844 845 847 849 850 852 852 853 853 853 853 854 854 854 854 855 855 855 855 855 856 857 857 858 858 859 859 859 859 860 861 861 861 861 861 860
837 837 838 840 842 843 845 847 849 850 851 852 852 853 853 853 854 854 854 855 855 855 855 856 856 857 857 858 858 858 859 860 860 860 860 861 862 862 862 862 861 860
837 838 839 841 842 844 846 848 849 851 852 852 852 853 854 854 854 855 855 855 855 856 856 857 857 857 858 858 858 859 860 861 861 861 862 862 863 863 863 862 862 861
837 838 840 841 843 845 846 848 850 851 852 852 853 854 854 855 855 855 856 856 856 856 857 857 858 858 859 859 859 860 861 861 862 862 863 863 863 863 863 862 861 860
838 839 840 842 843 845 847 849 851 852 853 853 854 854 855 855 856 856 856 856 856 856 857 857 858 859 859 860 860 861 862 862 863 863 863 863 863 863 863 862 861 860
839 841 842 843 844 846 848 850 851 852 854 854 855 855 856 856 857 857 857 857 856 857 857 858 859 859 860 861 861 862 862 863 863 863 863 863 863 863 862 861 861 860
840 841 843 844 846 847 848 850 852 853 855 855 856 856 856 857 857 858 857 857 857 857 858 858 859 860 861 861 862 863 863 864 864 864 863 863 863 862 862 861 860 860
841 842 844 846 847 848 849 851 852 854 855 856 857 856 857 857 858 858 858 858 858 858 859 860 860 861 862 862 863 863 864 864 864 864 863 863 863 862 862 861 860 860
841 844 845 847 848 849 850 851 853 855 856 857 857 857 857 858 858 858 859 859 859 860 860 860 861 862 862 863 863 864 864 864 864 864 863 863 863 862 862 861 860 860
842 844 846 848 849 850 851 852 853 855 857 857 858 858 858 859 859 859 860 860 860 861 861 861 862 862 863 864 864 864 864 864 864 864 863 863 863 862 862 861 860 860
843 845 846 848 850 851 851 852 854 855 857 857 858 858 859 860 860 861 861 861 861 862 862 862 863 863 864 864 864 864 864 864 864 864 863 863 862 862 861 861 860 860
843 845 847 848 850 851 851 852 854 855 857 858 858 859 860 861 861 862 862 862 862 863 863 863 863 864 864 864 864 864 864 864 864 863 863 863 862 862 861 861 860 860
842 844 846 848 849 851 852 853 854 856 857 858 859 860 861 862 863 863 863 864 864 863 863 864 864 864 864 864 864 864 864 864 864 863 863 862 862 861 861 861 860 860
842 844 846 848 849 851 852 853 854 856 857 858 859 860 862 863 864 865 865 865 864 864 864 864 865 865 865 865 864 864 864 864 864 863 863 862 861 861 861 861 860 859
841 843 845 847 849 850 852 853 854 856 857 858 859 861 862 864 865 866 866 866 865 865 865 864 865 865 865 865 865 865 864 864 863 863 862 861 861 861 860 860 860 859
840 843 845 847 848 850 851 853 854 856 857 859 860 861 863 865 866 866 866 866 866 866 865 865 865 865 865 865 865 865 864 863 863 862 862 861 861 860 860 860 860 858
840 842 844 846 848 849 851 853 854 856 857 859 860 862 863 865 866 867 867 867 867 866 866 865 866 866 866 865 865 864 864 863 862 861 861 861 861 860 860 860 859 858
840 842 844 846 847 849 851 853 854 856 857 858 860 861 863 865 866 866 867 867 867 867 866 866 866 866 866 865 865 864 863 862 861 861 861 860 860 860 860 859 858 857
839 841 843 845 847 848 850 852 854 856 857 858 860 861 863 865 866 866 867 867 867 867 867 867 866 866 866 865 865 864 863 862 861 861 860 860 860 860 859 859 858 857
839 841 843 845 846 848 850 852 854 855 857 858 860 861 863 864 865 866 866 866 867 867 867 867 866 866 866 865 864 863 863 862 861 860 860 860 860 859 859 858 857 855
837 840 842 844 846 848 850 852 853 855 856 858 860 861 863 864 865 865 865 866 866 867 867 867 866 866 865 865 864 863 863 862 861 861 860 860 859 859 858 857 856 854